Location: Carnières
(50.1682°N, 3.3474°E)
Time: 13:55:58
(UTC+00:00)

MOZ.5/SAFIR/RUBIN 5/SL-8 - Pass Details

Date: 16 August 2024
Orbit: 671 x 698 km, 98.3° (Epoch: 14 September)

Event Time Altitude Azimuth Distance (km) Brightness Sun altitude
Exits shadow 02:34:09 19° 267° (W) 1,614 5.3 -16.9°
Maximum altitude 02:34:19 19° 270° (W) 1,613 5.3 -16.9°
Drops below altitude 10° 02:37:44 10° 316° (NW) 2,168 6.4 -16.5°
Sets 02:40:36 0° 334° (NNW) 3,094 7.4 -16.2°
